DateTimeUTC,F1_A11,F1_S11,BsB_S11,BsG_S11,BsR_S11,BbsB_S11,BbsG_S11,BbsR_S11,BaB_A11,BaG_A11,BaR_A11,Tu_S11,T_S11,Uu_S11,U_S11,P_S11,T1_A11
2021-05-07T11:00:00Z,00000200,21000000,,,,,,,0000.21,0000.00,0000.16,17.7,24.4,00.9,00.6,0673.5,31.0
2021-05-07T11:01:00Z,00000200,21000000,,,,,,,-000.25,-000.06,-000.23,17.7,24.4,00.9,00.6,0673.5,31.0
2021-05-07T11:02:00Z,00000200,21000000,,,,,,,-000.30,-000.48,-000.35,17.7,24.4,00.9,00.6,0673.5,31.0
2021-05-07T11:03:00Z,00000200,61000000,,,,,,,0000.37,0000.42,0000.57,17.7,24.4,00.9,00.6,0673.5,31.0
2021-05-07T11:04:00Z,00000200,41000000,0000.67,0000.53,0000.25,-000.10,0000.34,-000.05,0000.50,0000.26,0000.34,17.9,24.2,00.5,00.3,0674.5,31.0
2021-05-07T11:05:00Z,00000200,01000000,0001.01,0000.77,0000.32,0000.25,0000.12,0000.29,0000.31,0000.67,0000.08,17.9,24.2,00.5,00.3,0674.6,31.0
2021-05-07T11:06:00Z,00000200,01000000,0001.25,0000.68,0000.14,0000.48,0000.05,0000.43,0000.78,0000.31,0000.51,17.9,24.2,00.7,00.4,0674.6,31.0
2021-05-07T11:07:00Z,00000200,01000000,0000.34,0000.61,0000.40,-000.10,0000.12,0000.36,0000.53,0000.75,0000.71,17.9,24.2,00.9,00.6,0674.6,31.0
2021-05-07T11:08:00Z,00000200,01000000,0001.49,0000.23,0000.36,0000.38,0000.29,0000.28,0000.50,0000.25,0000.19,17.9,24.2,00.8,00.5,0674.6,31.0
2021-05-07T11:09:00Z,00000200,01000000,0000.04,0000.59,0000.27,0000.55,0000.26,0000.40,0000.36,0000.44,-000.21,17.9,24.2,00.8,00.5,0674.6,31.0
2021-05-07T11:10:00Z,00000200,01000000,0000.97,0000.67,0000.39,0000.37,-000.07,0000.46,0000.38,-000.04,0000.48,17.9,24.2,00.7,00.5,0674.6,31.0
2021-05-07T11:11:00Z,00000200,01000000,0001.43,0000.67,0000.36,0000.09,0000.29,0000.16,0000.26,0001.09,0000.51,18.0,24.2,00.6,00.4,0674.6,31.0
2021-05-07T11:12:00Z,00000200,01000000,0000.41,0000.64,0000.18,0000.15,0000.07,0000.10,0000.38,-000.48,-000.11,18.0,24.2,00.6,00.4,0674.6,31.0
2021-05-07T11:13:00Z,00000200,01000000,0001.41,0000.46,0000.15,-000.03,0000.39,0000.12,-000.18,0000.50,0000.42,18.0,24.2,00.5,00.4,0674.6,31.0
2021-05-07T11:14:00Z,00000200,01000000,0000.93,0000.51,0000.45,0000.23,-000.00,0000.32,0000.76,0000.17,-000.16,18.0,24.2,00.5,00.3,0674.6,31.0
2021-05-07T11:15:00Z,00000200,01000000,0001.02,0000.60,-000.01,0000.09,-000.05,0000.36,0000.54,0000.11,0000.55,18.0,24.2,00.5,00.3,0674.6,31.0
2021-05-07T11:16:00Z,00000200,01000000,0001.21,0000.17,0000.16,0000.38,0000.01,0000.39,0000.30,0000.59,0000.24,18.0,24.2,00.4,00.3,0674.6,31.0
2021-05-07T11:17:00Z,00000200,01000000,0001.04,0000.61,0000.28,-000.08,0000.15,0000.14,0000.33,0000.72,0000.08,18.0,24.2,00.4,00.3,0674.6,31.0
2021-05-07T11:18:00Z,00000200,01000000,0000.53,0000.36,0000.22,0000.57,0000.34,0000.30,0000.27,-000.02,0000.29,18.0,24.2,00.3,00.2,0674.6,31.0
2021-05-07T11:19:00Z,00000200,01000000,0000.54,0000.76,0000.04,-000.20,0000.11,0000.08,0000.47,0000.60,0000.59,18.0,24.2,00.3,00.2,0674.6,31.0
2021-05-07T11:20:00Z,00000200,01000000,0000.35,0000.65,0000.29,0000.53,-000.03,0000.18,0000.84,0000.35,0000.10,18.1,24.2,00.4,00.3,0674.6,31.0
2021-05-07T11:21:00Z,00000200,01000000,0001.25,0000.52,0000.54,-000.05,0000.16,0000.43,0000.22,0000.39,-000.03,18.1,24.2,00.4,00.2,0674.6,31.0
2021-05-07T11:22:00Z,00000200,01000000,0000.83,0000.93,0000.35,-000.03,0000.29,0000.18,0001.02,0000.83,0000.73,18.1,24.2,00.5,00.4,0674.6,31.0
2021-05-07T11:23:00Z,00000200,01000000,0001.22,0000.62,0000.24,0000.25,0000.13,0000.45,0000.39,0000.49,0000.39,18.1,24.2,00.6,00.4,0674.6,31.0
2021-05-07T11:24:00Z,00000200,01000000,0000.90,0000.37,0000.47,0000.28,0000.20,0000.44,-000.02,-000.18,0000.23,18.1,24.2,00.6,00.4,0674.6,31.0
2021-05-07T11:25:00Z,00000200,01000000,0000.73,0000.62,0000.01,0000.43,0000.23,0000.15,0000.59,0000.70,0000.18,18.1,24.2,00.5,00.3,0674.6,31.0
2021-05-07T11:26:00Z,00000200,01000000,0000.65,0000.47,0000.35,-000.17,0000.21,0000.34,0000.35,0000.14,0000.38,18.1,24.3,00.4,00.3,0674.6,31.0
2021-05-07T11:27:00Z,00000200,01000000,0000.97,0000.31,0000.26,0000.02,0000.23,0000.26,0000.85,0000.67,0000.56,18.1,24.3,00.6,00.4,0674.6,31.0
2021-05-07T11:28:00Z,00000200,01000000,0000.49,0000.44,0000.18,-000.01,0000.28,0000.44,0000.19,0000.40,0000.15,18.2,24.3,00.7,00.5,0674.6,31.0
2021-05-07T11:29:00Z,00000200,01000000,0000.89,0000.34,0000.24,0000.20,-000.00,0000.08,0000.32,0000.47,0000.43,18.2,24.3,00.6,00.4,0674.6,31.0
2021-05-07T11:30:00Z,00000200,01000000,0001.17,0000.43,-000.05,0000.47,-000.19,0000.35,0000.51,0000.34,0000.30,18.2,24.3,00.6,00.4,0674.6,31.0
2021-05-07T11:31:00Z,00000200,01000000,0000.58,0000.35,0000.01,0000.25,-000.01,0000.30,0000.60,0000.37,0000.12,18.2,24.3,00.5,00.4,0674.6,31.0
2021-05-07T11:32:00Z,00000200,01000000,0000.51,0000.63,-000.02,0000.42,0000.21,0000.28,0000.08,0000.30,0000.20,18.2,24.3,00.6,00.4,0674.6,31.0
2021-05-07T11:33:00Z,00000200,01000000,0000.35,0000.15,0000.13,-000.18,0000.06,0000.22,0000.38,0000.23,-000.02,18.2,24.3,00.6,00.4,0674.7,31.0
2021-05-07T11:34:00Z,00000200,01000000,0000.46,0000.16,-000.07,0000.05,-000.01,0000.17,-000.06,0000.13,0000.15,18.2,24.3,00.5,00.4,0674.7,31.0
2021-05-07T11:35:00Z,00000200,01000000,0000.67,0000.12,0000.15,0000.62,0000.09,0000.10,0000.59,0000.03,0000.05,18.2,24.3,00.4,00.3,0674.6,31.0
2021-05-07T11:36:00Z,00000200,01000000,0000.56,0000.54,0000.18,0000.08,-000.02,0000.29,-000.32,-000.20,0000.31,18.3,24.3,00.3,00.2,0674.6,31.0
2021-05-07T11:37:00Z,00000200,01000000,0000.76,0000.66,0000.24,0000.68,-000.05,0000.25,0000.80,0000.79,0000.12,18.3,24.3,00.3,00.2,0674.6,31.0
2021-05-07T11:38:00Z,00000200,01000000,0001.77,0000.45,0000.41,0000.10,0000.39,0000.43,0000.27,0000.49,0000.41,18.3,24.4,00.2,00.2,0674.7,31.0
2021-05-07T11:39:00Z,00000200,01000000,0000.89,0000.53,0000.10,0000.08,0000.37,0000.33,0000.36,0000.22,0000.27,18.3,24.4,00.3,00.2,0674.6,31.0
2021-05-07T11:40:00Z,00000200,01000000,0001.91,0000.45,0000.33,0000.36,-000.03,0000.12,0000.63,0000.42,0000.21,18.3,24.4,00.2,00.2,0674.6,31.0
2021-05-07T11:41:00Z,00000200,01000000,0000.75,0000.65,0000.22,0000.23,0000.08,-000.10,0000.09,0000.11,0000.27,18.3,24.4,00.2,00.2,0674.6,31.0
2021-05-07T11:42:00Z,00000200,01000000,0000.94,0000.73,0000.44,0000.22,0000.07,0000.20,0000.57,0000.77,0000.15,18.3,24.4,00.2,00.1,0674.6,31.0
2021-05-07T11:43:00Z,00000200,01000000,0000.67,0000.37,0000.35,-000.03,0000.11,0000.25,0000.47,0000.06,0000.30,18.3,24.4,00.2,00.2,0674.6,31.1
2021-05-07T11:44:00Z,00000200,01000000,0000.89,0000.57,0000.18,0000.37,0000.03,0000.13,0000.43,0000.35,0000.36,18.3,24.4,00.2,00.1,0674.6,31.0
2021-05-07T11:45:00Z,00000200,01000000,0000.66,0000.38,0000.44,0000.09,0000.13,0000.21,0000.10,0000.41,0000.21,18.3,24.4,00.2,00.1,0674.6,31.0
2021-05-07T11:46:00Z,00000200,01000000,0000.06,0000.69,0000.46,-000.33,0000.22,0000.33,0000.49,-000.13,0000.16,18.4,24.4,00.2,00.1,0674.6,31.0
2021-05-07T11:47:00Z,00000200,01000000,0000.43,0000.37,0000.10,-000.13,0000.29,0000.29,0000.58,0000.70,0000.47,18.4,24.4,00.2,00.1,0674.7,31.0
2021-05-07T11:48:00Z,00000200,01000000,0000.56,0000.44,0000.15,0000.18,-000.10,0000.44,0000.35,0000.75,0000.16,18.4,24.4,00.2,00.1,0674.7,31.0
2021-05-07T11:49:00Z,00000200,01000000,0000.83,0000.41,0000.38,-000.08,0000.12,0000.34,0000.40,0000.23,0000.24,18.3,24.4,00.2,00.2,0674.7,31.0
2021-05-07T11:50:00Z,00000200,01000000,0001.03,0000.98,0000.29,-000.72,-000.14,0000.43,0000.21,0000.27,0000.26,18.4,24.4,00.2,00.2,0674.7,31.0
2021-05-07T11:51:00Z,00000200,01000000,0000.61,0000.42,0000.27,0000.22,-000.08,0000.22,0000.30,0000.34,0000.24,18.3,24.4,00.2,00.2,0674.7,31.0
2021-05-07T11:52:00Z,00000200,01000000,0000.80,0000.44,0000.36,0000.24,0000.17,0000.30,0000.50,0000.05,0000.49,18.3,24.4,00.2,00.1,0674.7,31.0
2021-05-07T11:53:00Z,00000200,01000000,0001.02,0000.86,0000.27,0000.52,0000.09,0000.47,0000.62,0000.34,-000.15,18.4,24.4,00.2,00.1,0674.7,31.0
2021-05-07T11:54:00Z,00000200,01000000,0000.94,0000.60,0000.31,0000.47,0000.14,0000.35,0000.22,0000.51,0000.32,18.4,24.4,00.1,00.1,0674.7,31.0
2021-05-07T11:55:00Z,00000200,01000000,0000.74,0000.57,0000.38,0000.23,0000.26,0000.33,0000.27,0000.23,0000.09,18.4,24.4,00.1,00.1,0674.7,31.0
2021-05-07T11:56:00Z,00000200,01000000,0001.21,0000.45,0000.01,-000.26,-000.11,0000.44,0000.27,0000.27,0000.18,18.4,24.5,00.2,00.1,0674.7,31.0
2021-05-07T11:57:00Z,00000200,41000000,,,,,,,0000.71,0000.74,0000.57,18.4,24.5,,00.0,0674.7,31.0
2021-05-07T11:58:00Z,00000200,61000000,,,,,,,-000.22,-000.11,-000.05,18.2,24.6,,00.0,0673.7,31.0
2021-05-07T11:59:00Z,00000200,21000000,,,,,,,-000.53,-000.40,0000.11,18.2,24.7,,00.0,0673.7,31.0
